GFSMA_700_temp_084.txt.gz
Temp
2 3 2 2 2 3 4 4 4 3 4 4 4 4 4 4 4 4 4 4 4 4 4 4 4 4 4 4 4 4 3 3 3 3 3 3 3 3 3 2 2 2 2
2 2 2 2 2 3 3 3 3 4 3 3 3 3 4 4 4 4 4 3 3 3 3 4 3 4 3 3 3 3 3 3 3 3 3 3 3 2 2 2 2 2 2
3 2 2 2 2 3 3 4 3 4 4 3 2 3 4 3 3 3 3 3 3 3 3 3 3 3 3 3 3 3 3 2 2 2 2 2 2 2 2 2 2 2 1
2 2 2 -0 2 3 3 3 3 3 3 3 3 2 3 2 3 3 3 3 3 3 3 3 3 3 2 2 2 2 2 2 2 2 2 2 2 2 2 1 2 2 2
2 1 1 1 2 2 3 3 3 3 3 3 2 2 2 2 2 2 2 2 2 2 2 2 2 2 2 2 2 2 2 2 1 1 1 2 2 2 2 1 1 1 1
1 1 1 1 2 2 3 3 3 3 3 2 2 2 1 2 2 2 2 2 2 2 2 2 1 1 1 1 1 1 1 1 1 1 1 1 2 2 1 1 1 1 0
2 2 1 1 2 3 3 3 2 2 3 2 2 2 1 1 1 1 1 1 1 1 1 1 1 1 1 1 1 1 1 1 1 1 1 1 1 1 1 1 1 0 -0
1 2 2 2 2 2 2 2 2 2 2 2 2 1 1 1 1 1 2 2 1 0 1 0 0 0 1 1 1 1 1 1 1 0 0 0 1 -0 0 0 0 -0 -1
2 1 2 2 2 1 1 1 1 2 2 2 2 1 2 2 1 1 2 2 2 1 0 1 0 0 0 0 0 1 0 -0 0 0 0 0 0 0 0 -0 -1 -2 -2
1 0 1 2 2 1 0 1 1 1 1 1 2 2 2 1 1 1 1 2 1 1 0 -1 -1 -0 0 0 0 0 -0 -0 -0 0 0 0 0 0 0 -0 -1 -1 -1
1 1 1 1 1 -1 -1 -1 -1 -2 -0 1 1 1 1 1 2 1 1 0 -0 -1 -1 -1 -2 -1 -0 -0 0 -0 -1 -1 -0 -0 -0 -0 -0 -1 -1 -0 -0 -0 -1
2 1 1 1 1 1 0 -1 -3 -3 -1 -0 -0 -0 1 1 1 1 0 -0 -2 -1 -1 -2 -1 -1 -1 -0 -0 -0 -1 -1 -1 -1 -1 -1 -1 -1 -1 -1 -1 -1 -1
1 1 1 1 1 0 1 -0 -1 -3 -3 -3 -2 -1 -0 0 0 -0 -1 -1 -1 -1 -1 -2 -1 -1 -1 -1 -1 -1 -1 -1 -1 -1 -1 -1 -1 -1 -1 -1 -1 -1 -1
1 1 0 1 0 0 -0 0 -1 -2 -3 -3 -3 -2 -1 -1 -0 -1 -1 -2 -1 -1 -1 -1 -1 -1 -1 -1 -1 -1 -1 -1 -1 -1 -1 -1 -1 -1 -1 -1 -1 -1 -1
2 1 1 1 1 0 -0 0 0 -1 -1 -1 -2 -2 -2 -1 -1 -1 -2 -2 -1 -2 -1 -1 -1 -1 -1 -1 -1 -1 -1 -1 -1 -1 -1 -1 -1 -1 -1 -1 -1 -1 -1
2 2 2 1 1 1 1 0 0 0 -0 -0 -0 -1 -1 -0 -1 -2 -2 -2 -2 -1 -1 -1 -1 -1 -2 -1 -1 -1 -1 -1 -1 -1 -1 -1 -1 -1 -1 -1 -1 -1 -1
2 2 1 1 1 1 1 1 0 1 0 0 -0 -0 -0 -1 -1 -1 -1 -1 -1 -1 -1 -1 -1 -1 -1 -1 -1 -2 -1 -1 -1 -1 -1 -1 -1 -0 -0 -0 -0 -1 -1
2 2 1 1 1 1 1 1 1 0 -0 -0 -0 -0 -1 -1 -1 -1 -1 -1 -1 -1 -2 -1 -0 -1 -1 -1 -2 -2 -1 -2 -1 -0 -0 -0 -0 -0 -0 0 -0 -1 -0
2 2 2 1 0 0 1 0 0 -0 -0 -0 -0 -0 -0 -1 -1 -1 -1 -1 -2 -2 -2 -2 -1 -1 -1 -1 -1 -1 -1 -0 -0 0 -0 -0 0 0 0 0 -0 -1 -1
4 3 3 2 1 1 1 0 0 1 1 0 -0 -1 -1 -1 -1 -1 -1 -1 -1 -2 -2 -2 -2 -1 -2 -2 -2 -2 1 0 1 1 1 1 1 1 0 0 -0 -1 -1
4 3 3 3 3 2 2 2 1 1 1 1 1 1 0 0 0 -0 -1 -2 -2 -1 -1 -1 -1 -1 -1 -1 -0 0 0 1 1 1 1 2 1 1 1 1 0 -0 -1
5 4 4 4 3 3 2 2 1 1 1 1 2 1 1 0 0 -0 -0 -0 -1 -0 -0 -0 -0 -0 0 1 1 0 0 1 2 1 1 2 2 1 1 1 0 -0 -1
5 4 4 4 4 3 3 3 2 2 3 3 3 3 2 2 2 2 1 1 1 1 -0 -1 -1 -0 0 0 -1 1 2 1 1 1 1 1 1 1 1 1 -0 -0 -1
4 4 3 3 3 3 3 3 3 2 2 2 2 2 2 2 2 2 2 2 2 1 1 1 -0 -1 -0 1 0 0 -1 -1 -1 -1 -1 -1 -1 -0 -1 -1 -1 -1 -1
4 4 3 3 3 2 3 2 2 2 1 1 1 1 0 0 0 0 1 1 0 0 0 0 0 0 0 0 0 -0 -0 -1 -1 -1 -1 -1 -1 -1 -1 -2 -2 -2 -3
4 3 3 3 2 2 2 1 1 1 0 -0 -0 0 0 0 1 0 0 0 0 0 0 -0 -0 0 -0 -0 -1 -0 -1 -0 -1 -1 -1 -1 -1 -3 -2 -2 -5 -6 -6

GFSMA_700_temp_087.txt.gz
Temp
2 2 2 2 2 2 2 2 3 3 4 3 3 3 3 4 3 4 4 4 4 4 4 3 3 3 4 4 4 4 3 3 3 3 3 3 3 3 3 3 3 3 3
2 1 2 2 2 2 1 1 3 3 3 3 3 3 3 3 3 3 3 4 3 3 3 3 3 3 3 3 3 3 3 3 3 3 3 3 2 2 3 3 2 3 2
1 1 2 2 3 2 1 1 1 2 2 3 3 3 3 3 3 3 3 3 3 3 3 3 3 3 3 3 3 3 3 3 2 2 2 2 2 2 2 2 3 2 2
2 2 2 2 2 2 1 2 2 3 2 2 3 3 3 2 3 3 2 3 2 2 3 2 2 2 2 2 2 2 2 2 2 2 2 2 2 2 2 2 2 2 2
2 2 2 2 2 2 1 2 3 3 3 3 2 3 2 2 2 2 2 2 2 2 2 2 2 2 2 2 2 2 2 2 2 2 2 2 2 2 2 2 2 2 2
1 2 2 1 2 1 1 2 3 2 2 2 2 2 2 2 2 2 2 2 2 2 2 2 2 2 1 1 1 1 1 1 1 1 1 1 1 1 2 2 2 2 1
2 2 1 1 1 1 1 2 2 2 3 2 2 2 1 2 1 2 2 2 2 2 2 2 1 1 1 1 1 1 1 1 1 1 1 1 1 1 1 1 1 1 1
1 2 1 1 0 1 1 2 2 3 2 2 2 1 2 2 1 2 2 2 2 2 2 1 1 1 1 1 1 1 1 1 1 0 1 1 1 1 1 1 1 0 -0
2 1 1 1 1 1 2 3 3 2 2 2 1 1 1 1 1 2 2 2 1 2 1 1 1 1 1 1 1 0 1 0 0 0 0 0 0 0 0 0 -0 -1 -0
1 2 1 2 2 2 2 2 2 2 1 2 2 2 1 1 1 1 1 1 1 1 1 1 1 0 1 0 -0 -0 0 0 0 0 -0 0 0 0 0 -0 -0 -1 -1
1 2 1 1 2 2 2 2 2 1 1 1 1 1 1 1 1 1 1 1 1 1 0 0 0 -0 -0 -2 -1 -1 -0 -0 -0 -0 -0 -0 -0 -0 -0 -0 -0 -1 -1
1 -1 1 2 2 2 2 1 1 0 1 0 0 -1 0 0 1 1 1 1 0 1 -0 -1 -1 -1 -1 -2 -3 -2 -1 -1 -0 -1 -1 -1 -1 -1 -1 -1 -1 -1 -1
1 1 1 1 1 1 1 -0 -0 -0 -1 -2 -2 -1 -0 -0 -1 -0 -0 -0 -0 -0 -1 -1 -1 -2 -1 -2 -2 -2 -1 -1 -1 -1 -1 -1 -1 -1 -1 -2 -1 -1 -1
0 1 1 1 0 1 1 0 1 -1 -3 -1 -3 -2 -2 -2 -2 -2 -1 -1 -2 -1 -2 -2 -2 -1 -2 -1 -1 -1 -1 -1 -1 -1 -2 -2 -2 -1 -1 -1 -1 -1 -1
1 1 0 0 0 0 0 1 0 0 -0 -1 -1 -3 -3 -3 -3 -3 -2 -2 -1 -1 -2 -1 -1 -2 -1 -1 -1 -1 -1 -1 -1 -2 -1 -1 -1 -1 -1 -2 -1 -1 -1
2 1 1 1 1 0 0 0 0 0 -0 -0 -0 -1 -2 -2 -2 -3 -3 -1 -1 -1 -2 -1 -1 -1 -1 -1 -1 -1 -1 -1 -1 -1 -1 -1 -1 -1 -1 -1 -2 -1 -1
1 1 1 2 2 1 1 1 1 0 0 0 -0 -1 -1 -1 -1 -1 -1 -2 -2 -2 -1 -1 -1 -1 -1 -1 -1 -1 -1 -1 -1 -1 -1 -1 -1 -1 -1 -1 -1 -1 -1
2 2 2 1 2 1 1 1 1 1 0 -0 -0 -0 -1 -1 -1 -1 -1 -1 -1 -1 -1 -1 -1 -0 -0 -1 -1 -1 -1 -1 -2 -2 -1 -2 -2 -2 -2 -2 -2 -1 -1
2 2 2 1 1 1 1 1 1 0 0 -0 -1 -0 -0 -0 -1 -0 -1 -1 -1 -1 -1 -2 -2 -1 -1 -1 -1 -1 -1 -1 -1 -1 -1 -1 -1 -1 -2 -1 -1 -0 -0
2 2 2 1 1 1 1 1 1 0 -0 0 -0 -0 -0 -0 -0 -0 -1 -1 -1 -1 -1 -1 -1 -1 -1 -1 -1 -1 -1 -1 1 0 0 0 -0 -0 -0 -0 -0 -0 0
3 3 2 2 2 1 1 1 1 1 1 0 0 1 1 0 0 -0 -0 0 -0 -1 -1 -1 -2 -2 -1 -1 -0 -1 -1 -0 1 1 1 1 1 1 1 0 0 0 0
4 4 4 4 3 2 2 2 2 2 2 2 2 2 1 1 1 1 0 -0 -1 -0 0 0 -0 -1 -0 0 -0 -1 -1 0 2 2 2 1 2 2 2 2 2 2 1
5 4 4 4 4 4 4 4 3 3 3 3 3 2 2 2 1 1 1 0 0 0 -0 -1 -0 -1 -1 -1 -1 0 0 -0 -0 -0 0 0 1 -0 0 0 1 1 1
4 4 4 3 3 4 4 3 3 3 3 2 2 2 1 1 1 1 0 0 0 1 0 -0 0 0 -0 0 -1 -0 -0 -1 -1 -1 -1 -1 -1 -2 -2 -2 -1 -1 -1
4 4 4 4 3 3 3 3 3 2 1 1 0 0 0 0 0 0 1 0 -0 -0 -0 0 0 0 0 -0 -0 -0 -1 -1 -2 -2 -2 -2 -2 -2 -2 -2 -3 -3 -2
3 3 3 3 3 3 3 3 3 2 1 0 1 1 0 0 -0 -0 0 -0 -0 -1 -1 -0 -1 -1 -1 -1 -1 -1 -1 -1 -1 -1 -2 -2 -2 -4 -3 -3 -4 -5 -5

GFSMA_700_temp_093.txt.gz
Temp
5 5 4 4 3 3 2 2 2 1 2 2 2 2 3 1 2 1 4 4 4 4 4 4 4 4 4 4 4 4 4 4 3 3 4 4 4 4 3 3 3 3 3
6 5 4 3 2 3 2 3 3 2 1 1 2 2 2 1 2 3 5 4 4 4 4 4 4 4 4 4 4 4 3 3 3 3 3 3 3 3 3 3 3 3 3
5 5 4 3 2 2 2 2 2 3 2 1 1 1 2 3 3 3 5 4 4 4 4 4 4 4 4 3 3 3 3 3 3 3 3 3 3 3 3 3 3 3 3
4 4 4 4 3 2 2 2 2 2 2 1 1 2 2 3 3 3 4 4 4 4 4 4 4 4 3 3 3 3 3 3 3 3 3 3 3 3 3 2 2 2 2
4 4 3 3 3 2 2 2 2 2 2 1 2 1 2 3 3 3 3 3 4 4 4 4 4 4 3 3 3 3 3 3 3 3 2 2 2 2 2 2 2 2 2
4 3 3 3 2 2 1 2 2 2 1 0 0 0 2 2 2 3 3 3 3 3 3 4 3 3 3 3 3 3 3 3 2 2 2 2 2 2 2 2 2 2 2
4 4 3 2 3 2 2 2 2 2 1 -0 -0 0 -0 1 2 3 3 3 4 3 3 3 3 3 3 3 3 3 2 2 2 2 2 2 2 2 1 1 1 1 1
4 4 3 3 2 2 2 2 2 1 1 0 1 1 1 1 1 2 3 3 3 3 3 3 3 3 3 3 3 2 2 2 2 2 1 1 1 1 1 1 1 1 1
4 4 3 3 2 2 2 2 2 1 1 1 1 2 2 1 2 2 2 3 3 3 3 3 3 2 2 2 2 2 2 2 2 2 1 1 1 1 1 0 0 1 1
3 3 3 2 2 2 2 1 1 1 1 0 1 1 1 1 2 2 2 2 2 3 2 2 2 2 1 2 2 2 1 1 1 1 1 1 0 0 0 0 -0 0 0
3 3 2 2 1 1 2 1 2 1 1 0 1 1 1 1 0 1 2 2 2 2 2 1 1 1 1 1 1 1 1 1 1 0 -0 0 0 0 0 -0 -0 -0 -0
3 2 2 1 1 1 1 2 2 1 0 0 1 1 1 1 0 -0 -0 -0 0 1 1 1 1 1 1 1 1 1 0 0 0 -0 -1 -1 -2 -2 -0 0 0 -0 0
3 2 2 2 1 1 1 1 1 1 -0 0 1 1 1 1 -1 -1 -1 -0 -1 -1 -0 0 1 1 1 1 0 0 0 -0 -1 -1 -1 -2 -3 -2 -1 -0 -1 -0 -0
2 2 1 1 1 1 1 1 1 0 0 1 1 1 0 -0 -0 -1 -2 -1 -1 -1 -2 -0 1 0 0 0 -0 -0 -1 -1 -1 -1 -2 -2 -2 -2 -1 -1 -1 -0 -0
2 2 2 1 1 1 1 1 1 0 1 1 1 0 -0 -1 -1 -2 -1 -0 -1 -2 -1 -1 -1 -0 -0 -0 -0 -1 -1 -0 -1 -1 -1 -1 -1 -1 -1 -0 -0 -1 -1
2 2 2 1 1 1 2 0 1 1 1 1 1 0 -0 -0 -0 -1 -1 -0 -1 -1 -1 -1 -2 -1 -1 -1 -1 -1 -1 -1 -1 -1 -1 -1 -1 -1 -1 -1 -1 -1 -1
2 1 1 1 1 1 0 1 1 0 0 1 1 -1 0 0 -0 -1 -1 -1 -1 -0 -1 -1 -1 -1 -1 -0 -0 -1 -1 -1 -1 -1 -1 -1 -1 -1 -1 -2 -2 -1 -1
1 0 0 1 0 0 -0 -0 0 1 1 0 0 0 0 0 0 -1 0 -0 -0 0 -0 0 0 -1 -0 -0 -1 -1 -1 -1 -1 -0 -0 -1 -1 -1 -2 -1 -1 -1 -2
2 1 0 0 1 0 -0 -0 -0 0 0 0 0 1 0 0 -0 -0 0 1 0 -0 -1 -1 -0 -0 -1 -1 -1 -1 -0 -0 -1 -1 -1 -0 0 -0 -0 -0 -1 -1 -1
3 1 1 2 1 1 1 1 1 1 0 1 1 1 0 -0 0 0 -0 -0 -0 -1 -1 -0 -0 0 -0 0 -1 -0 -0 -0 -0 -0 -0 -0 -1 -1 -1 -1 -1 -1 -1
2 2 1 1 2 1 1 1 1 1 1 1 1 1 1 1 1 1 0 -0 -0 -1 -1 -0 -0 -0 0 0 -0 -0 0 0 0 -0 -0 -0 -1 -0 -1 -1 -1 -1 -1
2 2 2 1 1 2 2 2 2 1 1 1 1 1 1 0 0 -0 -0 -0 -0 -1 -1 -1 -0 0 -1 -0 0 0 -0 -0 0 0 -0 -1 -1 -1 -1 -1 -1 -1 -1
3 3 3 3 4 4 3 3 2 1 0 1 1 1 0 0 1 0 -0 -0 -0 -0 -1 -1 -0 0 0 -0 -1 -1 -1 -1 -1 -1 -1 -1 -1 -1 -1 -1 -1 -1 -1
4 3 3 4 4 3 3 3 2 2 2 2 2 2 2 1 1 0 0 0 0 -0 -0 -0 -1 -1 -1 -1 -1 -1 -1 -1 -1 -1 -1 -1 -2 -2 -2 -2 -3 -3 -3
3 3 3 3 3 3 2 2 2 2 1 1 1 1 2 1 1 1 0 1 0 -0 -0 -0 -0 -0 -0 -1 -1 -1 -1 -1 -1 -1 -1 -2 -2 -2 -1 -1 -2 -2 -2
2 2 2 2 2 2 2 1 0 1 1 1 1 1 1 1 1 0 0 0 1 -0 -0 -0 0 0 -1 -1 -1 -1 -1 -2 -1 -1 -2 -2 -2 -2 -2 -3 -3 -3 -4

GFSMA_700_temp_099.txt.gz
Temp
7 7 7 6 6 5 5 4 4 3 3 3 2 2 2 3 2 3 4 4 4 4 5 5 5 5 5 5 5 5 5 4 4 4 4 4 4 3 3 3 3 3 3
6 6 6 6 6 5 4 4 4 3 3 2 1 2 2 2 2 3 3 4 4 5 5 5 5 5 5 5 5 5 4 4 4 4 4 4 4 4 4 3 3 3 3
6 6 6 6 5 5 4 4 4 3 3 2 2 2 1 2 2 2 3 3 4 4 5 5 4 5 4 4 4 4 4 4 4 4 4 4 4 4 3 3 3 3 3
6 6 6 5 5 4 4 3 3 3 2 2 2 2 2 2 1 2 3 4 4 4 5 5 5 4 4 4 4 4 4 4 4 4 4 4 3 3 3 3 3 3 3
6 6 6 5 5 5 4 3 3 3 2 1 2 2 1 2 1 3 3 3 4 4 4 4 4 4 4 4 4 4 4 4 4 3 3 3 3 3 3 3 3 2 2
6 6 5 5 5 5 4 3 3 2 2 2 2 1 1 2 1 3 2 3 3 4 4 4 4 4 4 4 4 4 4 4 3 3 3 3 3 3 3 2 2 2 2
6 6 5 5 5 5 4 3 2 2 1 2 2 2 1 1 2 2 3 3 3 4 4 4 4 4 4 3 3 4 4 3 3 3 3 3 2 2 2 2 2 1 1
6 6 5 5 5 4 4 3 2 2 1 2 2 2 2 1 1 1 2 2 3 4 4 4 3 3 3 3 3 3 3 3 3 3 2 2 2 2 2 2 1 1 1
6 6 5 5 5 4 4 3 3 1 2 1 2 2 2 1 1 1 2 3 3 4 4 4 3 3 3 3 3 3 3 3 2 2 2 2 2 2 1 1 1 1 1
6 6 5 5 5 4 4 4 3 2 1 1 1 1 1 2 2 2 3 3 3 4 4 3 3 3 3 3 3 3 2 2 2 2 1 1 1 1 1 1 0 -0 -0
6 5 5 5 5 4 4 4 2 2 2 1 1 1 1 1 0 1 2 4 4 4 3 3 3 3 3 2 2 2 2 2 2 1 1 1 1 0 0 -0 -2 -2 -2
6 6 5 5 4 3 4 3 2 2 1 1 2 2 1 1 1 1 1 1 2 3 3 3 3 3 2 3 2 2 2 1 1 1 1 1 0 -0 -0 -1 -1 -2 -2
6 5 5 5 4 4 4 3 3 2 2 1 1 2 1 1 0 -0 1 1 2 2 2 2 2 2 2 2 2 2 1 1 1 1 1 1 -0 -0 -1 -1 -1 -1 -1
6 6 5 4 4 3 3 2 2 1 1 1 1 1 1 1 0 -0 1 0 0 0 1 1 1 1 1 1 1 1 1 1 0 0 0 -0 -1 -1 -1 -1 -2 -1 -1
6 5 5 4 3 3 2 1 2 2 1 1 1 1 1 1 -1 -1 -0 -0 -0 0 0 1 0 0 0 1 1 1 1 0 0 0 -0 -1 -1 -1 -1 -2 -1 -1 -2
5 5 4 3 3 2 2 2 2 2 0 1 1 1 0 0 -1 -1 -0 -0 -0 -0 -0 0 -0 -0 -1 -1 -1 -0 -0 -1 -1 -1 -1 -1 -2 -1 -1 -1 -1 -1 -2
5 4 3 3 3 2 2 1 2 1 1 2 1 1 0 0 0 -1 -1 -1 -1 -0 -1 -0 -1 -1 -1 -1 -2 -1 -2 -1 -1 -1 -1 -1 -1 -1 -1 -1 -1 -2 -2
5 3 3 2 2 2 1 1 2 1 1 1 1 1 1 0 -0 -1 -1 -1 -1 -1 -2 -1 -1 -2 -1 -1 -2 -2 -1 -1 0 0 -1 -1 -1 -1 -1 -2 -1 -1 -1
4 3 2 1 2 1 1 1 1 1 1 0 1 0 0 -0 -0 -1 -1 -2 -2 -2 -1 -1 -1 -1 -2 -2 -1 -2 -2 -1 -1 -0 -1 -1 -1 -1 -1 -1 -1 -1 -1
3 2 1 1 1 1 1 1 1 1 1 1 0 1 0 -0 -0 -1 -1 -0 -1 -1 -1 -1 -0 -1 -1 -1 -1 -1 -1 -1 -1 -1 -1 -1 -1 -1 -1 -1 -1 -0 -1
3 2 0 1 1 0 0 0 1 0 0 0 -0 0 0 1 0 -0 -0 -0 0 -0 -0 -0 0 -0 -0 -1 -1 -1 -0 -1 -1 -1 -1 -1 -1 -0 -1 -1 -1 -1 -1
3 2 1 1 1 0 -0 -0 -0 1 0 0 -0 -0 -0 0 0 -0 -0 -0 -0 -0 -0 -0 0 0 -1 -1 -1 -1 -1 -0 -1 -0 -1 -0 -0 -0 -1 -1 -1 -1 -0
3 2 1 1 1 1 1 0 -0 0 -0 -0 -0 -0 -0 -0 -0 0 0 0 0 0 -0 -0 -1 -1 -1 -1 -1 -1 -0 -0 -1 -0 -1 -1 -1 -1 -1 -1 -1 -1 -1
1 1 1 0 1 0 0 1 1 0 0 -0 -0 -0 -0 0 0 0 0 -0 -0 -1 -1 -1 -1 -0 -1 -1 -0 -0 -0 -0 -1 -1 -1 -1 -1 -1 -1 -2 -2 -1 -1
0 1 1 0 1 1 -0 -0 -1 -0 0 1 1 -0 0 0 0 0 0 0 -1 -1 0 -0 -1 -1 -1 -0 -0 -1 -1 -1 -1 -1 -1 -2 -2 -2 -2 -2 -2 -2 -2
-0 -0 0 0 0 0 -0 -0 -1 -1 -1 -0 -1 -0 -0 -1 -1 -1 -0 -0 0 -0 -0 -1 -0 -0 -1 -1 -1 -1 -1 -1 -2 -1 -2 -2 -2 -2 -2 -3 -3 -3 -4